User: anonymous   Login
Location: Dappach
(48.9767°N, 9.6998°E)
Time: 11:44:44
(UTC+00:00)
Language:

Cosmos 1833 Rocket - Orbit

View from above orbital plane
View from above orbital plane
View from above satellite
View from above satellite

Ground track
Ground track

The orbit data is extracted from the following two-line orbital elements,

1 17590U 87027B   24200.89551306  .00000377  00000-0  21128-3 0  9995
2 17590  71.0035  98.1480 0006779 301.8792  58.1671 14.16987116930553
Epoch (UTC): 18 July 2024 21:29:32
Eccentricity: 0.0006779
inclination: 71.0035°
perigee height: 830 km
apogee height: 840 km
right ascension of ascending node: 98.1480°
argument of perigee: 301.8792°
revolutions per day: 14.16987116
mean anomaly at epoch: 58.1671°
orbit number at epoch: 93055

The dashed part of the orbit path shows where the satellite is in the earth's shadow,  

DLR